This demonstration page uses our WeatherBlox Daily Observations layout. Learn more.

Left ArrowRight Arrow

39.51506, -84.39828

Hourly Observations for February 27, 2020

Temp ( °F °C ) Dew Point ( °F °C ) Humidity (%) Winds ( mph kmh ) Pressure ( in mb ) Visibility ( mi km ) Precip ( " mm )
12:15 am 00:15 Cloudy with Light Snow 28 -2.2 22 -5.3 80 80 WNW 13 20 30.05 1018 10 16.0934 0 0
12:35 am 00:35 Cloudy with Light Snow 28 -2.3 23 -5 82 82 WNW 13 20 30.05 1018 7 11.26538 0 0
12:55 am 00:55 Cloudy with Light Snow 28 -2.5 22 -5.4 81 81 WNW 16 26 30.06 1018 10 16.0934 0 0
1:15 am 01:15 Cloudy with Light Snow 27 -2.6 22 -5.4 81 81 WNW 12 19 30.06 1018 10 16.0934 0 0
1:35 am 01:35 Cloudy with Light Snow 27 -2.7 22 -5.5 81 81 WNW 16 26 30.07 1018 10 16.0934 0 0
1:55 am 01:55 Cloudy with Light Snow 27 -2.8 22 -5.8 80 80 W 12 19 30.08 1019 10 16.0934 0 0
2:15 am 02:15 Cloudy with Light Snow 27 -2.9 21 -5.9 80 80 W 15 24 30.08 1019 10 16.0934 0 0
2:35 am 02:35 Cloudy with Light Snow 27 -3 21 -5.9 81 81 W 15 24 30.08 1019 10 16.0934 0 0
2:55 am 02:55 Cloudy with Light Snow 27 -3 21 -6.2 79 79 WNW 14 22 30.08 1019 10 16.0934 0 0
3:15 am 03:15 Cloudy with Light Snow 27 -2.9 20 -6.9 74 74 W 16 26 30.08 1019 10 16.0934 0 0
3:35 am 03:35 Cloudy with Light Snow 27 -3 20 -6.9 75 75 W 14 22 30.09 1019 10 16.0934 0 0
3:55 am 03:55 Cloudy with Light Snow 26 -3.3 20 -6.8 77 77 W 17 28 30.09 1019 10 16.0934 0 0
4:15 am 04:15 Cloudy with Light Snow 26 -3.4 20 -6.8 78 78 W 13 20 30.1 1019 10 16.0934 0 0
4:35 am 04:35 Cloudy with Light Snow 26 -3.5 19 -7.2 76 76 W 14 22 30.1 1019 10 16.0934 0 0
4:55 am 04:55 Cloudy with Light Snow 26 -3.5 18 -7.7 73 73 W 14 22 30.11 1020 10 16.0934 0 0
5:15 am 05:15 Cloudy with Light Snow 26 -3.6 17 -8.3 70 70 W 13 20 30.12 1020 10 16.0934 0 0
5:35 am 05:35 Cloudy with Light Snow 26 -3.6 16 -8.7 68 68 W 12 19 30.13 1020 10 16.0934 0 0
5:55 am 05:55 Cloudy 26 -3.6 17 -8.6 69 69 W 14 22 30.13 1020 10 16.0934 0 0
6:15 am 06:15 Cloudy with Light Snow 25 -3.8 17 -8.6 70 70 W 17 28 30.14 1021 10 16.0934 0 0
6:35 am 06:35 Cloudy 25 -3.9 16 -8.7 70 70 W 14 22 30.14 1021 10 16.0934 0 0
6:55 am 06:55 Cloudy 25 -4 16 -9 69 69 WSW 14 22 30.15 1021 10 16.0934 0 0
7:15 am 07:15 Cloudy 25 -4.1 15 -9.3 67 67 WSW 14 22 30.15 1021 10 16.0934 0 0
7:35 am 07:35 Cloudy 25 -4.1 14 -10.2 63 63 W 9 15 30.16 1021 10 16.0934 0 0
7:55 am 07:55 Cloudy 25 -3.9 14 -9.9 63 63 W 7 11 30.16 1021 10 16.0934 0 0
8:15 am 08:15 Cloudy 25 -3.7 15 -9.7 63 63 W 10 17 30.16 1021 10 16.0934 0 0
8:35 am 08:35 Cloudy 26 -3.5 16 -9.1 66 66 WSW 10 17 30.16 1021 10 16.0934 0 0
8:55 am 08:55 Cloudy 26 -3.3 16 -8.7 67 67 W 9 15 30.16 1021 10 16.0934 0 0
9:15 am 09:15 Cloudy with Light Snow 26 -3.2 17 -8.3 68 68 W 14 22 30.16 1021 10 16.0934 0 0
9:35 am 09:35 Cloudy with Light Snow 27 -3 18 -7.7 70 70 WSW 10 17 30.16 1021 10 16.0934 0 0
9:55 am 09:55 Cloudy with Light Snow 27 -2.8 18 -7.7 69 69 WSW 12 19 30.16 1021 10 16.0934 0 0
10:15 am 10:15 Cloudy with Light Snow 28 -2.4 18 -7.7 67 67 WSW 14 22 30.16 1021 10 16.0934 0 0
10:35 am 10:35 Cloudy 29 -1.9 18 -7.6 65 65 WSW 9 15 30.15 1021 10 16.0934 0 0
10:55 am 10:55 Cloudy 29 -1.7 17 -8.4 61 61 W 15 24 30.15 1021 10 16.0934 0 0
11:15 am 11:15 Cloudy 29 -1.7 16 -8.8 59 59 W 17 28 30.15 1021 10 16.0934 0 0
11:35 am 11:35 Cloudy 29 -1.4 17 -8.3 60 60 W 13 20 30.15 1021 10 16.0934 0 0
11:55 am 11:55 Cloudy 29 -1.4 16 -8.7 58 58 W 16 26 30.14 1021 10 16.0934 0 0
12:15 pm 12:15 Cloudy 30 -0.9 18 -7.8 60 60 WSW 18 30 30.14 1021 10 16.0934 0 0
12:35 pm 12:35 Cloudy 31 -0.6 18 -7.7 59 59 W 18 30 30.14 1021 10 16.0934 0 0
12:55 pm 12:55 Cloudy 31 -0.6 19 -7.4 60 60 W 18 30 30.13 1020 10 16.0934 0 0
1:15 pm 13:15 Cloudy 32 0.2 20 -6.8 60 60 W 16 26 30.11 1020 10 16.0934 0 0
1:35 pm 13:35 Cloudy 32 0.1 19 -7.1 59 59 W 24 39 30.11 1020 10 16.0934 0 0
1:55 pm 13:55 Cloudy 32 0.1 18 -7.7 56 56 WSW 22 35 30.11 1020 10 16.0934 0 0
2:15 pm 14:15 Mostly Cloudy 34 0.9 17 -8.1 51 51 W 17 28 30.1 1019 10 16.0934 0 0
2:35 pm 14:35 Cloudy 33 0.4 17 -8.4 52 52 W 16 26 30.1 1019 10 16.0934 0 0
2:55 pm 14:55 Cloudy 34 0.9 17 -8.4 50 50 W 17 28 30.11 1020 10 16.0934 0 0
3:15 pm 15:15 Cloudy 32 0.2 17 -8.3 53 53 W 21 33 30.11 1020 10 16.0934 0 0
3:35 pm 15:35 Cloudy 32 0.1 18 -7.7 56 56 W 18 30 30.11 1020 10 16.0934 0 0
3:55 pm 15:55 Cloudy 32 -0.2 19 -7.5 58 58 W 16 26 30.12 1020 10 16.0934 0 0
4:15 pm 16:15 Cloudy 32 0 20 -6.7 61 61 WSW 16 26 30.12 1020 10 16.0934 0 0
4:35 pm 16:35 Cloudy 32 0 20 -6.4 62 62 W 17 28 30.12 1020 10 16.0934 0 0
4:55 pm 16:55 Cloudy 32 0.1 21 -6 64 64 W 14 22 30.11 1020 10 16.0934 0 0
5:15 pm 17:15 Cloudy 32 -0.1 22 -5.6 67 67 WSW 14 22 30.12 1020 10 16.0934 0 0
5:35 pm 17:35 Cloudy 32 0 22 -5.5 67 67 WSW 14 22 30.12 1020 10 16.0934 0 0
5:55 pm 17:55 Cloudy with Light Snow 31 -0.3 23 -5.2 70 70 WSW 9 15 30.11 1020 10 16.0934 0 0
6:15 pm 18:15 Cloudy with Light Snow 31 -0.3 23 -5.2 70 70 WSW 12 19 30.11 1020 10 16.0934 0 0
6:35 pm 18:35 Cloudy 31 -0.4 23 -5 71 71 WSW 7 11 30.11 1020 10 16.0934 0 0
6:55 pm 18:55 Cloudy 31 -0.4 23 -4.8 72 72 W 6 9 30.11 1020 10 16.0934 0 0
7:15 pm 19:15 Cloudy 31 -0.4 24 -4.6 74 74 WSW 3 6 30.1 1019 10 16.0934 0 0
7:35 pm 19:35 Cloudy 31 -0.4 24 -4.5 74 74 Calm 30.1 1019 10 16.0934 0 0
7:55 pm 19:55 Cloudy 31 -0.4 24 -4.3 75 75 WSW 5 7 30.1 1019 10 16.0934 0 0
8:15 pm 20:15 Cloudy with Light Snow 32 0.2 23 -4.9 69 69 WSW 9 15 30.09 1019 10 16.0934 0 0
8:35 pm 20:35 Cloudy with Light Snow 33 0.4 23 -5 67 67 SW 13 20 30.09 1019 10 16.0934 0 0
8:55 pm 20:55 Cloudy with Light Snow 33 0.5 23 -5 67 67 SW 9 15 30.08 1019 10 16.0934 0 0
9:15 pm 21:15 Cloudy with Light Snow 32 0.2 24 -4.7 70 70 SW 10 17 30.09 1019 10 16.0934 0 0
9:35 pm 21:35 Cloudy with Light Snow 32 0.2 24 -4.4 72 72 WSW 12 19 30.09 1019 10 16.0934 0 0
9:55 pm 21:55 Cloudy with Light Snow 33 0.3 24 -4.4 71 71 WSW 10 17 30.08 1019 10 16.0934 0 0
10:15 pm 22:15 Cloudy with Light Snow 31 -0.3 26 -3.3 80 80 WSW 10 17 30.09 1019 3.5 5.63269 0 0
10:35 pm 22:35 Cloudy with Light Snow 31 -0.8 28 -2.4 89 89 W 6 9 30.09 1019 3 4.82802 0 0
10:55 pm 22:55 Cloudy with Light Snow 30 -0.9 29 -1.9 93 93 W 5 7 30.09 1019 1.75 2.816345 0 0
11:15 pm 23:15 Cloudy with Light Snow 30 -0.9 29 -1.7 94 94 W 5 7 30.09 1019 3.5 5.63269 0 0
11:35 pm 23:35 Cloudy with Light Snow 31 -0.8 29 -1.6 94 94 W 6 9 30.09 1019 2.5 4.02335 0 0
11:55 pm 23:55 Cloudy with Light Snow 31 -0.7 29 -1.7 93 93 WSW 6 9 30.08 1019 5 8.0467 0 0

Powered by AerisWeather